Regional Weather Roundup
Issued by NWS

Home | Current Version | Previous Version | Graphics & Text | Print | Product List | Glossary On
Versions: 1 2 3 4 5 6 7 8 9 10 11 12 13 14 15 16 17 18 19 20 21 22 23 24 25 26 27 28 29 30 31 32 33 34 35 36 37 38 39 40 41 42 43 44 45 46 47 48 49 50
000
ASUS43 KMPX 260001
RWRMN
WEATHER ROUNDUP FOR MINNESOTA
NATIONAL WEATHER SERVICE TWIN CITIES/CHANHASSEN MN
700 PM CDT SUN JUN 25 2017


NOTE: "FAIR" INDICATES FEW OR NO CLOUDS BELOW 12,000 FEET WITH NO
SIGNIFICANT WEATHER AND/OR OBSTRUCTIONS TO VISIBILITY. N/A MEANS
CURRENT SKY AND/OR WEATHER CONDITIONS ARE NOT AVAILABLE.

MNZ060>063-068>070-260100-
   Twin Cities Metro

CITY           SKY/WX    TMP DP  RH WIND       PRES   REMARKS
TWIN CITIES    MOSUNNY   67  40  37 NW13      30.12S
6HR MIN TEMP:  62; 6HR MAX TEMP:  69;

ST PAUL        MOSUNNY   66  39  37 NW16G23   30.12S
CRYSTAL        MOSUNNY   67  37  33 NW15      30.11S
BLAINE         MOSUNNY   68  39  34 NW14G23   30.11S
LAKEVILLE      SUNNY     64  39  39 NW16G22   30.13S
EDEN PRAIRIE   SUNNY     68  38  33 NW16G22   30.12S
6HR MIN TEMP:  65; 6HR MAX TEMP:  71;

SOUTH ST PAUL  MOSUNNY   67  37  33 NW13G18   30.12R
LAKE ELMO      FAIR      64  41  42 NW17G23   30.12S
$$
MNZ001>005-007-008-013>017-022>024-027-028-260100-
   Northwest Minnesota

CITY           SKY/WX    TMP DP  RH WIND       PRES   REMARKS
BEMIDJI        MOSUNNY   57  46  65 NW13      30.15S
HALLOCK        PTSUNNY   61  48  63 N7        30.18F
ROSEAU         SUNNY     61  48  63 N10       30.16S
WARROAD        MOSUNNY   59  45  58 N8        30.16S
CROOKSTON      SUNNY     63  41  45 N17       30.17S
FOSSTON        MOSUNNY   57  45  62 N12       30.17S
DETROIT LAKES  SUNNY     61  37  41 NW16      30.16S
MOORHEAD       MOSUNNY   66  37  34 N15       30.16S
PARK RAPIDS    CLOUDY    62  40  44 N13G25    30.14S
MAHNOMEN       FAIR      63  39  41 N18       30.15S
$$
MNZ006-009>011-018-025>026-260100-
   North Central Minnesota

CITY           SKY/WX    TMP DP  RH WIND       PRES   REMARKS
BAUDETTE       SUNNY     59  45  59 NW13      30.13F
FLAG ISLAND    PTSUNNY   55  45  67 E8        30.14S
INTL FALLS     CLOUDY    54  45  71 CALM      30.12S
6HR MIN TEMP:  52; 6HR MAX TEMP:  62; 6HR PCP:  0.02;

WASKISH        MOSUNNY   57  45  62 NW10      30.14S
BIG FORK       LGT RAIN  54  48  82 N3        30.13S
LONGVILLE      MOSUNNY   57  46  67 NW5       30.14S
GRAND RAPIDS   SUNNY     58  42  55 NW15      30.13S
CRANE LAKE     PTSUNNY   52  46  82 CALM      30.14S
ORR            MOSUNNY   54  39  58 N3        30.10R
COOK           MOSUNNY   54  43  66 N5        30.12S
WALKER         CLOUDY    58  42  55 NW16      30.14S
$$
MNZ012-019>021-037-260100-
   Northeast Minnesota

CITY           SKY/WX    TMP DP  RH WIND       PRES   REMARKS
DULUTH         MOSUNNY   56  45  66 NW14G22   30.08F
6HR MIN TEMP:  51; 6HR MAX TEMP:  61; 6HR PCP: TRACE;

ELY            CLOUDY    48  46  93 N8        30.10S
HIBBING        LGT RAIN  50  48  93 W6        30.12R
EVELETH        MOSUNNY   55  35  47 N6G18     30.11S
DULUTH HARBOR  PTSUNNY   61  48  63 NW10      30.09S
TWO HARBORS    MOSUNNY   61  48  63 N8        30.06R
SILVER BAY     PTSUNNY   55  48  76 NW8       30.05R
GRAND MARAIS     N/A     48  48 100 SW5       30.03S
G MARAIS ARPRT RAIN      46  45  93 CALM      30.05S
$$
MNZ029>031-032-039>041-046>048-054>057-064-260100-
   West Central Minnesota

CITY           SKY/WX    TMP DP  RH WIND       PRES   REMARKS
FERGUS FALLS   PTSUNNY   63  45  51 W8        30.14S
WHEATON        CLOUDY    55  50  82 N15G23    30.21R
MORRIS         PTSUNNY   63  46  55 N7        30.17F
ALEXANDRIA     CLOUDY    62  44  51 W10       30.17F
ELBOW LAKE     CLOUDY    62  46  57 W10       30.17S
WADENA         MOSUNNY   63  43  48 NW13      30.14S
GLENWOOD       MOSUNNY   61  43  51 W13       30.17S
APPLETON       MOSUNNY   66  43  42 W14       30.16F
BENSON         PTSUNNY   64  45  48 N8        30.18F
ORTONVILLE     MOSUNNY   64  43  45 W12G18    30.17F THUNDER
MADISON        CLOUDY    66  45  45 NW8       30.18F
WILLMAR        FAIR      64  46  52 NW8       30.18F
$$
MNZ033>034-036-042>043-049>051-058-059-260100-
   Central Minnesota

CITY           SKY/WX    TMP DP  RH WIND       PRES   REMARKS
ST CLOUD       PTSUNNY   65  41  41 NW12G18   30.13S
6HR MIN TEMP:  63; 6HR MAX TEMP:  69;

SAUK CENTRE    MOCLDY    64  44  48 W8        30.16S
PAYNESVILLE    MOSUNNY   64  43  46 W9        30.16F
AITKIN         LGT RAIN  54  46  76 N8        30.12R
PINE RIVER     MOSUNNY   61  45  55 N14       30.16S
BRAINERD       SUNNY     64  37  36 NW20G26   30.12S
STAPLES        SUNNY     64  37  36 NW14      30.14S
LONG PRAIRIE   PTSUNNY   61  41  48 W9        30.15S
LITTLE FALLS   MOSUNNY   64  36  34 NW9G16    30.13S
LITCHFIELD     CLOUDY    63  48  59 NW12G28   30.17R
BUFFALO        PTSUNNY   64  37  36 W12G17    30.15S
MAPLE LAKE     PTSUNNY   65  42  43 NW12G17   30.15S
HUTCHINSON     CLOUDY    65  43  43 NW15      30.17R
$$
MNZ037-044-045-052-053-260100-
   East Central Minnesota

CITY           SKY/WX    TMP DP  RH WIND       PRES   REMARKS
PRINCETON      SUNNY     66  39  37 NW10G16   30.13R
MORA           MOSUNNY   63  41  45 NW14      30.12F
CAMBRIDGE      SUNNY     66  46  48 NW7G18    30.10S
RUSH CITY      MOSUNNY   63  43  48 NW7       30.11S
MOOSE LAKE     PTSUNNY   59  43  55 W13G21    30.10R
HINCKLEY       MOCLDY    61  45  55 NW9       30.11S
CLOQUET        SUNNY     55  46  71 NW10      30.10F
MCGREGOR       MOSUNNY   55  48  76 NW7       30.13F
$$
MNZ071>073-080-081-089-090-097-098-260100-
   Southwest Minnesota

CITY           SKY/WX    TMP DP  RH WIND       PRES   REMARKS
MONTEVIDEO     MOSUNNY   66  48  52 N8        30.18F
GRANITE FALLS  PTSUNNY   69  46  43 W14G20    30.19F
CANBY          CLOUDY    63  44  49 NW9       30.20F
MARSHALL       CLOUDY    63  44  50 NW20      30.19F
REDWOOD FALLS  MOSUNNY   66  42  41 NW12      30.17F
OLIVIA         CLOUDY    57  50  77 N6        30.18R
PIPESTONE      PTSUNNY   68  43  40 N9        30.21S
WINDOM         MOSUNNY   66  39  37 NW12G18   30.20S
WORTHINGTON    PTSUNNY   66  44  45 N13       30.22S
JACKSON        PTSUNNY   64  41  42 N12       30.21S
TRACY          PTSUNNY   65  43  45 NW14G21   30.21S
SLAYTON        MOSUNNY   64  44  48 N17       30.22S
$$
MNZ065>067-074>077-082>085-091>093-260100-
   South Central Minnesota

CITY           SKY/WX    TMP DP  RH WIND       PRES   REMARKS
MANKATO        SUNNY     66  38  35 NW17G23   30.16S
NEW ULM        CLOUDY    66  39  37 NW14      30.17S
ST JAMES       CLOUDY    64  39  39 NW9       30.20R
FAIRMONT       CLOUDY    66  41  40 NW12G21   30.20R
GLENCOE        PTSUNNY   66  46  48 NW10      30.15S
FARIBAULT      MOSUNNY   66  39  37 NW12G17   30.15R
OWATONNA       SUNNY     66  41  39 NW18      30.15S
WASECA         SUNNY     64  36  34 NW18      30.17S
ALBERT LEA     MOSUNNY   66  36  32 NW12G21   30.16S
$$
MNZ078>079-086>088-094>096-260100-
   Southeast Minnesota

CITY           SKY/WX    TMP DP  RH WIND       PRES   REMARKS
ROCHESTER      MOSUNNY   64  43  46 NW15      30.15R
6HR MIN TEMP:  57; 6HR MAX TEMP:  67;

RED WING       PTSUNNY   68  37  32 NW12      30.10S
STANTON        MOSUNNY   67  40  38 NW16G23   30.12S
DODGE CENTER   MOSUNNY   64  37  36 NW15G23   30.14S
WINONA         MOSUNNY   68  46  45 NW8       30.11S
AUSTIN         MOSUNNY   66  39  37 NW10      30.15S
PRESTON        MOSUNNY   62  43  49 NW9       30.14S
$$
ABBREVIATIONS USED IN REMARKS
   TC - TEMPERATURES IN CELSIUS
  WCI - WIND CHILL INDEX
   HX - HEAT INDEX
  VSB - VISIBILITY
$$




USA.gov is the U.S. government's official web portal to all federal, state and local government web resources and services.